[[{"header":{"parameterUnit":"m.s-1","parameterCategory":1,"la1":30.2991,"la2":30.254,"lo1":-89.0895,"lo2":-89.0444,"dy":0.0017,"dx":0.0017,"nx":28,"ny":28,"refTime":"2023-09-07T03:00:00:Z","depth":0,"parameterNumber":2,"parameterNumberName":"U-component_of_WINDS"},"data":[0,0,0,0,0,0,0,0,0,0,0,0,0,0,0,0,0,0,0,0,0,0,0,0,0,0,0,0,0,0,0,0,0,0,0,0,0,0,0,0,0,0,0,0,0,0,0,0,0,0,0,0,0,0,0,0,0,0,0.3364,0.3365,0,0.3471,0.3473,0.3474,0.3486,0.3485,0.3484,0.3483,0.3599,0.3603,0.3607,0,0,0,0,0,0,0,0,0,0,0,0,0,0.3175,0.3178,0.3364,0.3365,0.3366,0.3471,0.3473,0.3474,0.3486,0.3485,0.3484,0.3483,0.3598,0.3603,0.3608,0,0,0,0,0,0,0,0,0,0,0,0,0,0.3267,0.318,0.3363,0.3385,0.3388,0.3471,0.3473,0.3474,0.3487,0.3485,0.3483,0.3482,0.3596,0.3602,0.3608,0.3679,0,0,0.3627,0.363,0,0,0,0,0,0,0,0,0.3262,0.3274,0.3381,0.3384,0.3387,0.3464,0.3449,0.3543,0.3487,0.3449,0.3483,0.3481,0.3556,0.3565,0.3589,0.3684,0.3689,0.3628,0.3631,0.3634,0.3636,0,0,0,0,0,0,0,0.3256,0.327,0.3406,0.3382,0.3386,0.3391,0.3403,0.3467,0.3511,0.3453,0.3454,0.3466,0.3557,0.3583,0.3592,0.3691,0.3627,0.3633,0.3637,0.3639,0.3852,0.3854,0,0,0,0,0,0,0.3245,0.3264,0.3403,0.341,0.3319,0.3396,0.3409,0.3441,0.351,0.3519,0.3467,0.3466,0.3573,0.3585,0.3596,0.3686,0.3634,0.364,0.3643,0.385,0.3852,0.3855,0,0,0,0,0,0,0.324,0.3257,0.3399,0.3337,0.3356,0.3401,0.3437,0.3444,0.347,0.3521,0.3529,0.3485,0.3573,0.3587,0.3658,0.369,0.3643,0.3648,0.3848,0.3851,0.3854,0.3863,0,0,0,0,0,0,0.3235,0.3255,0.3281,0.3338,0.3359,0.3457,0.3439,0.3447,0.3479,0.3479,0.354,0.3549,0.3572,0.3649,0.3664,0.3697,0.3653,0.3845,0.3849,0.3853,0.3861,0.3866,0.3871,0,0,0,0,0,0.3228,0.328,0.3282,0.3299,0.3392,0.3459,0.3472,0.3496,0.3482,0.351,0.3543,0.3547,0.3683,0.3656,0.3674,0.3709,0.3843,0.3848,0.3852,0.3858,0.3865,0.3871,0,0,0,0,0,0,0.3228,0.3288,0.3291,0.3363,0.3405,0.3461,0.3497,0.3502,0.3552,0.355,0.358,0.3594,0.3664,0.3693,0.3662,0.3782,0.3762,0.377,0.3761,0.3768,0.3773,0.3766,0.3658,0,0,0,0,0,0.3236,0.3284,0.3334,0.3393,0.3414,0.3451,0.3481,0.3497,0.3543,0.3562,0.36,0.3647,0.37,0.3735,0.3787,0.3864,0.3879,0.3897,0.3902,0.3906,0.3914,0.3959,0.3969,0.3869,0.3869,0.3869,0,0,0.3254,0.3293,0.3321,0.3394,0.3429,0.348,0.3467,0.3521,0.356,0.3571,0.364,0.367,0.3724,0.3799,0.3833,0.3825,0.3944,0.3912,0.3915,0.392,0.3965,0.3974,0.3983,0.3872,0.3872,0.3871,0,0,0.3313,0.3346,0.3399,0.3434,0.3486,0.3511,0.3524,0.3578,0.3598,0.3667,0.3677,0.3725,0.3815,0.3854,0.3886,0.3959,0.3967,0.3975,0.4005,0.4049,0.4057,0.4064,0.4093,0.4103,0.3982,0.3982,0.3982,0,0.333,0.3405,0.3426,0.348,0.3513,0.3523,0.3579,0.3612,0.368,0.3703,0.3692,0.3807,0.3844,0.3929,0.3947,0.3971,0.3989,0.397,0.4053,0.4061,0.4068,0.4096,0.4107,0.3983,0.3983,0.3983,0.3983,0,0.3424,0.3476,0.3513,0.3576,0.3613,0.3667,0.3699,0.3734,0.3746,0.3772,0.3844,0.3888,0.3951,0.3971,0.3983,0.4059,0.4052,0.4047,0.4028,0.4078,0.4106,0.4116,0.3985,0.3984,0.3984,0.3984,0,0,0.3489,0.3562,0.3576,0.3605,0.3663,0.3705,0.3761,0.382,0.3851,0.3896,0.3946,0.4022,0.4018,0.4053,0.407,0.4108,0.4167,0.4099,0.41,0.4113,0.4257,0.4263,0.4275,0.417,0.4173,0.4174,0.4253,0,0.3557,0.3655,0.3676,0.3762,0.3812,0.3821,0.387,0.3912,0.3938,0.3986,0.4015,0.407,0.4058,0.408,0.4118,0.4152,0.4197,0.4146,0.4221,0.4223,0.421,0.4289,0.4296,0.4368,0.4264,0.4266,0.4267,0,0.3651,0.3697,0.3787,0.384,0.3862,0.3905,0.3962,0.4006,0.4055,0.4071,0.4111,0.4123,0.4184,0.416,0.4246,0.4211,0.4242,0.4263,0.4267,0.4278,0.425,0.4305,0.4391,0.4404,0.4283,0.4282,0.4281,0,0.3693,0.3778,0.3843,0.3868,0.393,0.3961,0.3989,0.4035,0.407,0.4119,0.4143,0.4199,0.4231,0.4275,0.4304,0.4283,0.4389,0.4366,0.4407,0.4407,0.4432,0.4431,0.4528,0.4446,0.4446,0.4446,0.4445,0,0.3769,0.3825,0.3863,0.3904,0.3967,0.3991,0.4054,0.4082,0.4123,0.4172,0.4183,0.4228,0.4261,0.4312,0.4334,0.4404,0.4418,0.4435,0.4441,0.4436,0.4434,0.446,0.4457,0.4449,0.4448,0.4447,0.4447,0,0.3829,0.3856,0.3929,0.3981,0.3995,0.404,0.4086,0.4127,0.4152,0.4213,0.4229,0.427,0.433,0.4362,0.4437,0.4452,0.4532,0.4533,0.4515,0.4519,0.4559,0.4556,0.4679,0.4698,0.46,0.4601,0.4601,0,0.3877,0.392,0.3976,0.4008,0.4036,0.4088,0.4122,0.4148,0.4184,0.4243,0.4278,0.4338,0.4388,0.4484,0.4522,0.458,0.4586,0.4624,0.4595,0.4589,0.4591,0.4589,0.4595,0.4631,0.4632,0.4633,0.4633,0,0.3962,0.3973,0.4022,0.4075,0.4116,0.416,0.4204,0.423,0.4262,0.4303,0.4364,0.4402,0.4479,0.454,0.4601,0.4632,0.464,0.4642,0.4655,0.4652,0.4642,0.4651,0.4533,0.464,0.4639,0.4639,0.4638,0.4638,0.402,0.4059,0.4105,0.416,0.4194,0.4235,0.4276,0.4306,0.4357,0.442,0.4432,0.4497,0.4546,0.4629,0.4661,0.4714,0.4707,0.4725,0.4731,0.4736,0.4739,0.4629,0.4725,0.4725,0.4725,0.4725,0.4725,0,0.4108,0.4138,0.4187,0.4247,0.429,0.4289,0.4338,0.4375,0.4432,0.4476,0.4524,0.4595,0.4654,0.4696,0.4757,0.4792,0.4797,0.4807,0.4807,0.4815,0.4741,0.4725,0.4802,0.4802,0.4802,0.4802,0.4802,0.4802,0.4159,0.4227,0.4243,0.4329,0.4359,0.4421,0.4449,0.4488,0.4523,0.4601,0.465,0.4675,0.472,0.4784,0.4839,0.485,0.4873,0.4884,0.4896,0.4827,0.4819,0.4812,0.4797,0.4888,0.4888,0.4966,0.4967,0.4967]},{"header":{"parameterUnit":"m.s-1","parameterCategory":1,"la1":30.2991,"la2":30.254,"lo1":-89.0895,"lo2":-89.0444,"dy":0.0017,"dx":0.0017,"nx":28,"ny":28,"refTime":"2023-09-07T03:00:00:Z","depth":0,"parameterNumber":3,"parameterNumberName":"V-component_of_WINDS"},"data":[0,0,0,0,0,0,0,0,0,0,0,0,0,0,0,0,0,0,0,0,0,0,0,0,0,0,0,0,0,0,0,0,0,0,0,0,0,0,0,0,0,0,0,0,0,0,0,0,0,0,0,0,0,0,0,0,0,0,-0.7097,-0.7097,0,-0.7136,-0.7136,-0.7137,-0.7191,-0.7192,-0.7193,-0.7194,-0.7232,-0.7232,-0.7232,0,0,0,0,0,0,0,0,0,0,0,0,0,-0.707,-0.7071,-0.7097,-0.7097,-0.7098,-0.7136,-0.7136,-0.7137,-0.7191,-0.7192,-0.7193,-0.7194,-0.7232,-0.7232,-0.7232,0,0,0,0,0,0,0,0,0,0,0,0,0,-0.7093,-0.7071,-0.7096,-0.7129,-0.7133,-0.7136,-0.7136,-0.7137,-0.7191,-0.7192,-0.7193,-0.7195,-0.7232,-0.7232,-0.7232,-0.7206,0,0,-0.7233,-0.7233,0,0,0,0,0,0,0,0,-0.7091,-0.7094,-0.7124,-0.7127,-0.7131,-0.716,-0.7141,-0.716,-0.719,-0.7168,-0.7194,-0.7195,-0.7207,-0.7209,-0.7213,-0.7208,-0.7209,-0.7233,-0.7233,-0.7233,-0.7233,0,0,0,0,0,0,0,-0.709,-0.7092,-0.7112,-0.7124,-0.7128,-0.7143,-0.7147,-0.7145,-0.7179,-0.717,-0.7175,-0.7179,-0.7209,-0.7213,-0.7215,-0.721,-0.7233,-0.7233,-0.7234,-0.7234,-0.719,-0.7189,0,0,0,0,0,0,-0.7083,-0.7091,-0.7111,-0.7113,-0.7114,-0.7142,-0.7147,-0.7149,-0.718,-0.7186,-0.7177,-0.7181,-0.7212,-0.7214,-0.7216,-0.7191,-0.7233,-0.7234,-0.7234,-0.7191,-0.719,-0.7188,0,0,0,0,0,0,-0.7083,-0.7085,-0.7109,-0.7103,-0.7107,-0.7141,-0.7143,-0.7149,-0.7153,-0.7185,-0.7191,-0.7175,-0.7213,-0.7216,-0.721,-0.7193,-0.7234,-0.7234,-0.7193,-0.7191,-0.7189,-0.7138,0,0,0,0,0,0,-0.7082,-0.7084,-0.7074,-0.7102,-0.7107,-0.7101,-0.7141,-0.7149,-0.7154,-0.7159,-0.7184,-0.719,-0.7215,-0.7209,-0.721,-0.7194,-0.7234,-0.7194,-0.7192,-0.719,-0.7141,-0.7135,-0.7129,0,0,0,0,0,-0.708,-0.7056,-0.7073,-0.7075,-0.7095,-0.71,-0.7103,-0.7132,-0.7152,-0.7143,-0.7164,-0.7189,-0.7194,-0.7208,-0.7209,-0.7193,-0.7196,-0.7193,-0.719,-0.7144,-0.7136,-0.7129,0,0,0,0,0,0,-0.7023,-0.706,-0.7079,-0.7063,-0.7078,-0.7109,-0.7098,-0.7122,-0.713,-0.7135,-0.717,-0.7176,-0.7166,-0.7179,-0.7193,-0.7172,-0.7199,-0.7196,-0.7164,-0.7156,-0.715,-0.7148,-0.7234,0,0,0,0,0,-0.7008,-0.7009,-0.7042,-0.7025,-0.7032,-0.7063,-0.7066,-0.7088,-0.7105,-0.7111,-0.7131,-0.7146,-0.7152,-0.7154,-0.7161,-0.7143,-0.7152,-0.7133,-0.7127,-0.7122,-0.7119,-0.7116,-0.7109,-0.7179,-0.7179,-0.7179,0,0,-0.6978,-0.6999,-0.6997,-0.7014,-0.7028,-0.7029,-0.7068,-0.7066,-0.7068,-0.711,-0.7107,-0.7122,-0.7142,-0.7131,-0.7127,-0.7141,-0.7102,-0.7118,-0.7114,-0.7114,-0.7112,-0.7105,-0.7099,-0.7177,-0.7177,-0.7177,0,0,-0.6925,-0.6939,-0.6929,-0.6943,-0.6965,-0.6987,-0.6984,-0.7013,-0.7025,-0.7022,-0.7056,-0.7058,-0.7066,-0.708,-0.7088,-0.7044,-0.7069,-0.7045,-0.7013,-0.7008,-0.7003,-0.6998,-0.6986,-0.6981,-0.7042,-0.7042,-0.7042,0,-0.6884,-0.6887,-0.692,-0.6918,-0.6926,-0.6966,-0.6958,-0.697,-0.6992,-0.6997,-0.7013,-0.7027,-0.7042,-0.7037,-0.7027,-0.7031,-0.7031,-0.7043,-0.7001,-0.6997,-0.6993,-0.6982,-0.6977,-0.7039,-0.704,-0.704,-0.704,0,-0.6839,-0.6841,-0.683,-0.6853,-0.686,-0.6854,-0.6887,-0.689,-0.6912,-0.6933,-0.6931,-0.6952,-0.6965,-0.6965,-0.6985,-0.6965,-0.6973,-0.6994,-0.7023,-0.6983,-0.6973,-0.6969,-0.7035,-0.7036,-0.7037,-0.7038,0,0,-0.6748,-0.6793,-0.6788,-0.6802,-0.683,-0.6833,-0.683,-0.6845,-0.6848,-0.6863,-0.6863,-0.6871,-0.6892,-0.6901,-0.6924,-0.692,-0.6889,-0.6942,-0.6943,-0.6934,-0.6871,-0.6857,-0.6851,-0.6905,-0.6904,-0.6904,-0.6871,0,-0.6703,-0.6701,-0.6733,-0.6723,-0.6728,-0.6768,-0.6766,-0.6784,-0.6804,-0.6811,-0.6833,-0.684,-0.6866,-0.6872,-0.687,-0.6893,-0.6877,-0.6895,-0.6908,-0.6908,-0.6904,-0.6845,-0.6829,-0.6797,-0.6867,-0.6866,-0.6865,0,-0.6648,-0.6663,-0.6655,-0.6688,-0.6691,-0.6689,-0.6708,-0.6713,-0.6736,-0.6751,-0.6763,-0.679,-0.6792,-0.6818,-0.6822,-0.6834,-0.6841,-0.6854,-0.6853,-0.6857,-0.6885,-0.685,-0.6787,-0.6783,-0.6859,-0.686,-0.686,0,-0.6588,-0.6605,-0.6604,-0.6613,-0.6651,-0.6649,-0.6665,-0.6689,-0.6697,-0.6713,-0.672,-0.6734,-0.6743,-0.6755,-0.6786,-0.6802,-0.6788,-0.6816,-0.6803,-0.6802,-0.6799,-0.6799,-0.6738,-0.6799,-0.6799,-0.6799,-0.6799,0,-0.6535,-0.6529,-0.6578,-0.6577,-0.6572,-0.6609,-0.6604,-0.6623,-0.6645,-0.665,-0.6685,-0.6689,-0.6728,-0.6737,-0.6761,-0.6763,-0.6766,-0.678,-0.6787,-0.6778,-0.6777,-0.6784,-0.6788,-0.6798,-0.6798,-0.6799,-0.6799,0,-0.6466,-0.6498,-0.65,-0.6537,-0.6547,-0.6542,-0.6574,-0.6576,-0.6599,-0.6605,-0.6609,-0.6645,-0.6658,-0.669,-0.671,-0.6727,-0.6723,-0.6734,-0.6716,-0.6721,-0.6707,-0.6709,-0.6651,-0.6646,-0.6707,-0.6707,-0.6706,0,-0.6431,-0.6428,-0.6466,-0.6473,-0.6488,-0.6497,-0.6507,-0.6543,-0.6552,-0.658,-0.6579,-0.6595,-0.661,-0.6628,-0.6657,-0.6674,-0.6687,-0.6666,-0.6689,-0.6682,-0.669,-0.6691,-0.6693,-0.6661,-0.666,-0.6659,-0.6658,0,-0.6367,-0.6384,-0.6397,-0.6417,-0.6428,-0.6445,-0.6463,-0.6467,-0.6508,-0.6517,-0.6531,-0.6543,-0.6566,-0.6582,-0.6604,-0.6621,-0.6647,-0.6651,-0.6649,-0.6641,-0.6632,-0.664,-0.6704,-0.6652,-0.6653,-0.6653,-0.6653,-0.6654,-0.6316,-0.6317,-0.6345,-0.636,-0.6379,-0.6396,-0.6401,-0.6427,-0.6439,-0.6462,-0.6483,-0.6496,-0.6522,-0.6555,-0.657,-0.6582,-0.6595,-0.6592,-0.6591,-0.6591,-0.6588,-0.6629,-0.6585,-0.6586,-0.6586,-0.6586,-0.6586,0,-0.6257,-0.6278,-0.6291,-0.6318,-0.633,-0.6355,-0.6378,-0.6386,-0.6398,-0.6421,-0.6436,-0.6454,-0.6471,-0.6502,-0.6522,-0.6526,-0.6539,-0.653,-0.6531,-0.6535,-0.6573,-0.6574,-0.6519,-0.6519,-0.6519,-0.6519,-0.6519,-0.6519,-0.6227,-0.6232,-0.6253,-0.6268,-0.6289,-0.6303,-0.6315,-0.6332,-0.6351,-0.637,-0.6385,-0.6406,-0.6433,-0.6456,-0.6474,-0.6483,-0.6489,-0.6477,-0.649,-0.6526,-0.6532,-0.6538,-0.6539,-0.6478,-0.6478,-0.6451,-0.6451,-0.6451]}]]